New Philadelphia, OH

6:02 AM EDT on June 22, 2018 (GMT -0400)
Clever

Weather History for KPHD - October, 2017

Change the Weather History Date:

Thursday, October 19, 2017

  Actual Average Record
Temperature  
Mean Temperature 57 °F 52 °F  
Max Temperature 74 °F 63 °F 79 °F (1963)
Min Temperature 40 °F 40 °F 25 °F (2015)
Degree Days  
Heating Degree Days 8 14  
Month to date heating degree days 56 207  
Since 1 July heating degree days 147 313  
Cooling Degree Days 0 0  
Month to date cooling degree days 46 9  
Year to date cooling degree days 831 697  
Growing Degree Days 7 (Base 50)    
Moisture  
Dew Point 45 °F    
Average Humidity 69    
Maximum Humidity 96    
Minimum Humidity 41    
Precipitation  
Precipitation 0.00 in 0.09 in 1.75 in (2011)
Month to date precipitation 2.55 1.69  
Year to date precipitation 34.25 31.90  
Sea Level Pressure  
Sea Level Pressure 30.21 in    
Wind  
Wind Speed 4 mph (South)    
Max Wind Speed 14 mph    
Max Gust Speed 20 mph    
Visibility 10 miles    
Events      
T = Trace of Precipitation, MM = Missing Value Source: NWS Daily Summary

Daily Weather History Graph

Daily Weather History Graph

Search for Another Location

Airport or City:

Astronomy

Oct. 19, 2017 Rise Set
Actual Time 7:41 AM EDT 6:39 PM EDT
Civil Twilight 7:13 AM EDT 7:06 PM EDT
Nautical Twilight 6:41 AM EDT 7:38 PM EDT
Astronomical Twilight 6:10 AM EDT 8:10 PM EDT
Moon 7:18 AM EDT (10/19) 7:01 PM EDT (10/19)
Length of Visible Light 11h 53m
Length of Day
10h 58m
Waning Crescent, 0% of the Moon is Illuminated
Oct 19
Waning Crescent
Oct 19
New
Oct 27
First Quarter
Nov 4
Full
Nov 10
Last Quarter

Hourly Weather History & Observations

Time (EDT) Temp. Windchill Dew Point Humidity Pressure Visibility Wind Dir Wind Speed Gust Speed Precip Events Conditions
12:53 AM 43.0 °F 40.3 °F 41.0 °F 93% 30.21 in 10.0 mi SE 4.6 mph - N/A   Clear
1:53 AM 45.0 °F - 42.1 °F 90% 30.22 in 10.0 mi Calm Calm - N/A   Clear
2:53 AM 41.0 °F - 39.0 °F 93% 30.22 in 10.0 mi Calm Calm - N/A   Clear
3:53 AM 43.0 °F 41.3 °F 41.0 °F 93% 30.21 in 10.0 mi ESE 3.5 mph - N/A   Clear
4:53 AM 41.0 °F - 39.9 °F 96% 30.22 in 10.0 mi Calm Calm - N/A   Clear
5:53 AM 41.0 °F - 39.9 °F 96% 30.23 in 10.0 mi Calm Calm - N/A   Clear
6:53 AM 41.0 °F 39.0 °F 39.0 °F 93% 30.22 in 10.0 mi ESE 3.5 mph - N/A   Clear
7:53 AM 42.1 °F 39.2 °F 39.9 °F 92% 30.22 in 6.0 mi ESE 4.6 mph - N/A   Clear
8:53 AM 46.9 °F - 43.0 °F 86% 30.24 in 10.0 mi ESE 5.8 mph - N/A   Clear
9:53 AM 55.0 °F - 46.0 °F 72% 30.24 in 10.0 mi Calm Calm - N/A   Clear
10:53 AM 62.1 °F - 46.0 °F 56% 30.24 in 10.0 mi Variable 5.8 mph - N/A   Clear
11:53 AM 66.0 °F - 46.9 °F 50% 30.23 in 10.0 mi SSW 6.9 mph - N/A   Clear
12:53 PM 68.0 °F - 46.9 °F 47% 30.22 in 10.0 mi WSW 10.4 mph 16.1 mph N/A   Clear
1:53 PM 71.1 °F - 48.0 °F 44% 30.19 in 10.0 mi SSW 11.5 mph - N/A   Clear
2:53 PM 72.0 °F - 48.9 °F 44% 30.17 in 10.0 mi SSW 9.2 mph - N/A   Clear
3:53 PM 73.0 °F - 48.9 °F 42% 30.17 in 10.0 mi WSW 8.1 mph 17.3 mph N/A   Clear
4:53 PM 73.0 °F - 48.9 °F 42% 30.16 in 10.0 mi WSW 10.4 mph - N/A   Clear
5:53 PM 71.1 °F - 48.0 °F 44% 30.16 in 10.0 mi SSW 6.9 mph - N/A   Clear
6:53 PM 66.9 °F - 48.9 °F 52% 30.17 in 10.0 mi Variable 3.5 mph - N/A   Clear
7:53 PM 64.9 °F - 48.9 °F 56% 30.19 in 10.0 mi SSW 3.5 mph - N/A   Clear
8:53 PM 64.0 °F - 48.9 °F 58% 30.19 in 10.0 mi Calm Calm - N/A   Clear
9:53 PM 64.0 °F - 48.9 °F 58% 30.19 in 10.0 mi Calm Calm - N/A   Clear
10:53 PM 55.9 °F - 48.9 °F 77% 30.20 in 10.0 mi ESE 3.5 mph - N/A   Clear
11:53 PM 54.0 °F - 48.9 °F 83% 30.21 in 10.0 mi Calm Calm - N/A   Clear